User: anonymous   Login
Location: Area 52 Observatory
(34.2620°N, 119.2590°W)
Time: 14:21:24
(UTC-07:00)
Language:

Hubble Space Telescope - Orbit

View from above orbital plane
View from above orbital plane
View from above satellite
View from above satellite

Ground track
Ground track

The orbit data is extracted from the following two-line orbital elements,

1 20580U 90037B   19294.93732816  .00000412  00000-0  14151-4 0  9991
2 20580  28.4688 103.7212 0002808  35.5344  99.3382 15.09284208419839
Epoch (UTC): 21 October 2019 22:29:45
Eccentricity: 0.0002808
inclination: 28.4688°
perigee height: 536 km
apogee height: 540 km
right ascension of ascending node: 103.7212°
argument of perigee: 35.5344°
revolutions per day: 15.09284208
mean anomaly at epoch: 99.3382°
orbit number at epoch: 41983

The dashed part of the orbit path shows where the satellite is in the earth's shadow,  

DLR